星链-35057(STARLINK-35057)

导读

STARLINK-35057是美国SpaceX公司星链星座的一员,于2025年9月6日发射。星链星座旨在构建全球低轨宽带互联网系统,该卫星为量产型卫星,采用平板设计与氪工质霍尔推进器,支持Ku/Ka波段通信及光学星间链路,具备自主避撞能力。卫星运行于低轨轨道,设计寿命约5-7年,退役后将主动离轨再入大气层烧毁,为全球提供高速互联网接入服务。

Basic Information
目录编号:
65525
目录名称:
STARLINK-35057
国际标识:
2025-200F
轨道中心:
EARTH
卫星名称:
星链-35057
卫星全名:
星链-35057(STARLINK-35057)
卫星状态:
在轨 (已飞行371 天)
发射日期:
2025-09-06 UTC
国别 :
美国 (US)
星等 :
--
This satellite is enrolled in the Space Conjunction Data Service (SCDS) and the current flight risk assessment level is: No High Risk
Orbit Information
数据来源 国际轨道数据
星历时间: 2026-09-12T11:16:17+0800
10小时前
查看轨道信息
半长轴: 6843.631km
偏心率: 0.000199
轨道倾角: 97.283°
近地点辐角 99.987°
升交点赤经 321.700°
平近点角 260.160°
近地点: 464.132km
远地点: 466.856km
周期: 93.905分钟
每日圈数: 15.334618
Detailed Information
固有亮度:
5
最大亮度:
2.5
卫星平台:
Starlink V1.0
覆盖范围:
全球
运营商:
太空探索技术公司
运营商所在国:
美国
制造商(研发单位):
太空探索技术公司
制造商所在国:
美国
使用方式:
暂无
Satellite Introduction
Starlink 计划是 SpaceX 推出的全球卫星互联网项目,通过发射低轨道卫星,为全球尤其是偏远地区提供高速、低延迟的互联网服务。自 2019 年起,Starlink 已部署数千颗卫星,旨在缩小全球数字鸿沟,推动互联网普及。该项目还为军事、航空等行业提供通信支持,带来广泛经济效益。
2D Orbit Map
3D Orbit Map
Orbit Altitude Analysis Chart
Orbit Inclination Analysis Chart
Orbit Comprehensive Analysis Chart
View Comprehensive Chart
Conjunction Data List
Event ID Objects TCA Miss Dist (km) Collision Risk Probability Collision Risk Index (CRI) Action
CDM_260913-230004-791106-552521
2026-09-13T
23:00:10+0000
1.787 km
极远距离
3.852946E-6 低风险 0.47
CDM_260913-214405-389406-552522
2026-09-13T
21:44:01+0000
2.512 km
极远距离
1.700047E-6 低风险 0.4
CDM_260913-012105-381906-552521
2026-09-13T
01:21:18+0000
2.641 km
极远距离
1.573548E-6 低风险 0.39
CDM_260913-221304-791106-552521
2026-09-13T
22:13:11+0000
2.846 km
极远距离
1.42085E-6 低风险 0.38
CDM_260914-020405-016606-552521
2026-09-14T
02:04:48+0000
2.822 km
极远距离
1.417576E-6 低风险 0.38
Miss Distance Evolution Trend with All Objects
Collision Probability Evolution Trend with All Objects